When you browse on this site, cookies collect data to enhance your experience and personalize the content and advertising you see.
Visit our Privacy Policy to learn more. By continuing to use the site, you agree to this use of cookies and data.
  • In France
  • List of Countries
  • For 7 days
  • Water Temperature
  • Satellite Maps
  • Weather Map
  • Weather Widgets
  • user-avatar
    Login

    Hourly Weather Khartoum

    Today, 16 June, Sunday

    Time Temperature Precipitation Wind Pressure Humidity
    00:00 +38°C° 0 mm 4 mps 724 mmHg 10%
    01:00 +37°C° 0 mm 4 mps 724 mmHg 11%
    02:00 +36°C° 0 mm 4 mps 723 mmHg 12%
    03:00 +35°C° 0 mm 3 mps 724 mmHg 13%
    04:00 +34°C° 0 mm 2 mps 724 mmHg 14%
    05:00 +32°C° 0 mm 1 mps 724 mmHg 15%
    06:00 +33°C° 0 mm 1 mps 725 mmHg 15%
    07:00 +34°C° 0 mm 1 mps 725 mmHg 14%
    08:00 +35°C° 0 mm 1 mps 726 mmHg 13%
    09:00 +37°C° 0 mm 1 mps 726 mmHg 13%
    10:00 +39°C° 0 mm 1 mps 726 mmHg 12%
    11:00 +40°C° 0 mm 1 mps 726 mmHg 11%
    12:00 +41°C° 0 mm 1 mps 725 mmHg 10%
    13:00 +42°C° 0 mm 1 mps 724 mmHg 10%
    14:00 +42°C° 0 mm 2 mps 724 mmHg 9%
    15:00 +42°C° 0 mm 2 mps 724 mmHg 9%
    16:00 +42°C° 0 mm 2 mps 723 mmHg 9%
    17:00 +43°C° 0 mm 2 mps 723 mmHg 9%
    18:00 +42°C° 0 mm 2 mps 723 mmHg 9%
    19:00 +41°C° 0 mm 2 mps 724 mmHg 10%
    20:00 +41°C° 0 mm 2 mps 724 mmHg 11%
    21:00 +40°C° 0 mm 2 mps 724 mmHg 11%
    22:00 +40°C° 0 mm 2 mps 725 mmHg 12%
    23:00 +39°C° 0 mm 3 mps 725 mmHg 12%

    Tomorrow, 17 June, Monday

    Time Temperature Precipitation Wind Pressure Humidity
    00:00 +38°C° 0 mm 3 mps 725 mmHg 18%
    01:00 +37°C° 0 mm 4 mps 724 mmHg 23%
    02:00 +37°C° 0 mm 5 mps 724 mmHg 29%
    03:00 +36°C° 0 mm 5 mps 724 mmHg 34%
    04:00 +35°C° 0 mm 5 mps 724 mmHg 40%
    05:00 +34°C° 0 mm 5 mps 724 mmHg 46%
    06:00 +35°C° 0 mm 6 mps 725 mmHg 45%
    07:00 +36°C° 0 mm 6 mps 726 mmHg 43%
    08:00 +36°C° 0 mm 6 mps 726 mmHg 42%
    09:00 +39°C° 0 mm 6 mps 726 mmHg 36%
    10:00 +40°C° 0 mm 6 mps 727 mmHg 30%
    11:00 +42°C° 0 mm 6 mps 727 mmHg 25%
    12:00 +44°C° 0 mm 6 mps 726 mmHg 22%
    13:00 +43°C° 0 mm 5 mps 726 mmHg 20%
    14:00 +45°C° 0 mm 5 mps 725 mmHg 18%
    15:00 +45°C° 0 mm 5 mps 725 mmHg 18%
    16:00 +45°C° 0 mm 5 mps 724 mmHg 18%
    17:00 +44°C° 0 mm 4 mps 724 mmHg 18%
    18:00 +43°C° 0 mm 5 mps 724 mmHg 20%
    19:00 +42°C° 0 mm 6 mps 724 mmHg 23%
    20:00 +41°C° 0 mm 6 mps 725 mmHg 25%
    21:00 +40°C° 0 mm 6 mps 725 mmHg 27%
    22:00 +39°C° 0 mm 6 mps 725 mmHg 29%
    23:00 +39°C° 0 mm 6 mps 725 mmHg 31%

    Day after tomorrow, 18 June, Tuesday

    Time Temperature Precipitation Wind Pressure Humidity
    00:00 +38°C° 0 mm 6 mps 726 mmHg 32%
    01:00 +38°C° 0 mm 6 mps 726 mmHg 33%
    02:00 +36°C° 0 mm 6 mps 726 mmHg 34%
    03:00 +35°C° 0 mm 7 mps 726 mmHg 38%
    04:00 +34°C° 0 mm 7 mps 726 mmHg 41%
    05:00 +34°C° 0 mm 8 mps 727 mmHg 45%
    06:00 +34°C° 0 mm 8 mps 727 mmHg 46%
    07:00 +34°C° 0 mm 8 mps 728 mmHg 48%
    08:00 +34°C° 0 mm 9 mps 728 mmHg 50%
    09:00 +35°C° 0 mm 9 mps 728 mmHg 45%
    10:00 +38°C° 0 mm 8 mps 728 mmHg 41%
    11:00 +39°C° 0 mm 8 mps 728 mmHg 37%
    12:00 +40°C° 0 mm 7 mps 727 mmHg 33%
    13:00 +41°C° 0 mm 6 mps 727 mmHg 29%
    14:00 +42°C° 0 mm 5 mps 726 mmHg 25%
    15:00 +42°C° 0 mm 5 mps 726 mmHg 24%
    16:00 +43°C° 0 mm 4 mps 725 mmHg 23%
    17:00 +43°C° 0 mm 3 mps 725 mmHg 21%
    18:00 +42°C° 0 mm 3 mps 725 mmHg 22%
    19:00 +42°C° 0 mm 3 mps 725 mmHg 23%
    20:00 +41°C° 0 mm 4 mps 726 mmHg 24%
    21:00 +40°C° 0 mm 4 mps 726 mmHg 25%
    22:00 +40°C° 0 mm 4 mps 726 mmHg 26%
    23:00 +39°C° 0 mm 5 mps 725 mmHg 27%

    19 June, Wednesday

    Time Temperature Precipitation Wind Pressure Humidity
    00:00 +39°C° 0 mm 5 mps 725 mmHg 29%
    01:00 +37°C° 0 mm 5 mps 725 mmHg 30%
    02:00 +36°C° 0 mm 5 mps 725 mmHg 32%
    03:00 +36°C° 0 mm 5 mps 725 mmHg 33%
    04:00 +35°C° 0 mm 5 mps 725 mmHg 35%
    05:00 +35°C° 0 mm 5 mps 725 mmHg 37%
    06:00 +35°C° 0 mm 6 mps 725 mmHg 36%
    07:00 +36°C° 0 mm 6 mps 726 mmHg 35%
    08:00 +38°C° 0 mm 7 mps 727 mmHg 34%
    09:00 +39°C° 0 mm 7 mps 727 mmHg 31%
    10:00 +41°C° 0 mm 7 mps 726 mmHg 28%
    11:00 +43°C° 0 mm 7 mps 726 mmHg 25%
    12:00 +43°C° 0 mm 5 mps 726 mmHg 21%
    13:00 +44°C° 0 mm 4 mps 725 mmHg 18%
    14:00 +45°C° 0 mm 3 mps 724 mmHg 15%
    15:00 +45°C° 0 mm 3 mps 724 mmHg 14%
    16:00 +46°C° 0 mm 2 mps 723 mmHg 13%
    17:00 +46°C° 0 mm 2 mps 723 mmHg 11%
    18:00 +45°C° 0 mm 2 mps 723 mmHg 12%
    19:00 +43°C° 0 mm 2 mps 723 mmHg 12%
    20:00 +42°C° 0 mm 2 mps 724 mmHg 12%
    21:00 +41°C° 0 mm 2 mps 724 mmHg 13%
    22:00 +40°C° 0 mm 2 mps 724 mmHg 15%
    23:00 +40°C° 0 mm 3 mps 724 mmHg 16%

    20 June, Thursday

    Time Temperature Precipitation Wind Pressure Humidity
    00:00 +39°C° 0 mm 3 mps 724 mmHg 18%
    01:00 +38°C° 0 mm 3 mps 723 mmHg 20%
    02:00 +38°C° 0 mm 4 mps 723 mmHg 23%
    03:00 +37°C° 0 mm 4 mps 723 mmHg 25%
    04:00 +36°C° 0 mm 5 mps 723 mmHg 28%
    05:00 +36°C° 0 mm 6 mps 724 mmHg 31%
    06:00 +38°C° 0 mm 7 mps 724 mmHg 31%
    07:00 +38°C° 0 mm 8 mps 725 mmHg 31%
    08:00 +39°C° 0 mm 9 mps 725 mmHg 31%
    09:00 +42°C° 0 mm 9 mps 725 mmHg 29%
    10:00 +43°C° 0 mm 9 mps 725 mmHg 26%
    11:00 +44°C° 0 mm 9 mps 725 mmHg 23%
    12:00 +45°C° 0 mm 7 mps 724 mmHg 20%
    13:00 +46°C° 0 mm 6 mps 724 mmHg 16%
    14:00 +47°C° 0 mm 4 mps 723 mmHg 13%
    15:00 +46°C° 0 mm 3 mps 723 mmHg 11%
    16:00 +46°C° 0 mm 2 mps 722 mmHg 10%
    17:00 +46°C° 0 mm 2 mps 722 mmHg 9%
    18:00 +45°C° 0 mm 2 mps 722 mmHg 9%
    19:00 +43°C° 0 mm 2 mps 723 mmHg 10%
    20:00 +42°C° 0 mm 2 mps 723 mmHg 10%
    21:00 +41°C° 0 mm 2 mps 723 mmHg 11%
    22:00 +42°C° 0 mm 3 mps 723 mmHg 12%
    23:00 +40°C° 0 mm 3 mps 723 mmHg 12%

    21 June, Friday

    Time Temperature Precipitation Wind Pressure Humidity
    00:00 +39°C° 0 mm 3 mps 723 mmHg 14%
    01:00 +40°C° 0 mm 4 mps 723 mmHg 15%
    02:00 +38°C° 0 mm 4 mps 722 mmHg 17%
    03:00 +38°C° 0 mm 6 mps 723 mmHg 24%
    04:00 +36°C° 0 mm 7 mps 723 mmHg 31%
    05:00 +35°C° 0 mm 9 mps 724 mmHg 38%
    06:00 +37°C° 0 mm 9 mps 724 mmHg 39%
    07:00 +37°C° 0 mm 9 mps 724 mmHg 39%
    08:00 +38°C° 0 mm 9 mps 725 mmHg 40%
    09:00 +39°C° 0 mm 9 mps 725 mmHg 36%
    10:00 +42°C° 0 mm 9 mps 725 mmHg 31%
    11:00 +43°C° 0 mm 9 mps 724 mmHg 27%
    12:00 +44°C° 0 mm 9 mps 724 mmHg 24%
    13:00 +45°C° 0 mm 8 mps 723 mmHg 21%
    14:00 +46°C° 0 mm 8 mps 723 mmHg 17%
    15:00 +46°C° 0 mm 7 mps 722 mmHg 16%
    16:00 +46°C° 0 mm 5 mps 722 mmHg 15%
    17:00 +45°C° 0 mm 4 mps 722 mmHg 14%
    18:00 +44°C° 0 mm 4 mps 722 mmHg 15%
    19:00 +43°C° 0 mm 4 mps 722 mmHg 16%
    20:00 +42°C° 0 mm 4 mps 722 mmHg 17%
    21:00 +42°C° 0 mm 4 mps 722 mmHg 18%
    22:00 +41°C° 0 mm 4 mps 722 mmHg 20%
    23:00 +40°C° 0 mm 4 mps 723 mmHg 22%
    Show more